owner,sensor,date,latitude,longitude,vertical_datum,sea_water_temperature,qcFlag
Chevron,ioos:station:wmo:42385:1,2021-10-01T00:07:00Z,28.3400,-88.2657,29.4,29.0,11111222
Chevron,ioos:station:wmo:42385:1,2021-10-01T00:27:00Z,28.3400,-88.2657,29.4,28.5,11111222
Chevron,ioos:station:wmo:42385:1,2021-10-01T00:47:00Z,28.3400,-88.2657,29.4,28.7,11111222
Chevron,ioos:station:wmo:42385:1,2021-10-01T01:07:00Z,28.3400,-88.2657,29.4,29.0,11111222
Chevron,ioos:station:wmo:42385:1,2021-10-01T01:27:00Z,28.3400,-88.2657,29.4,29.1,11111222
Chevron,ioos:station:wmo:42385:1,2021-10-01T01:47:00Z,28.3400,-88.2657,29.4,28.8,11111222
Chevron,ioos:station:wmo:42385:1,2021-10-01T02:07:00Z,28.3400,-88.2657,29.4,28.6,11111222
Chevron,ioos:station:wmo:42385:1,2021-10-01T02:27:00Z,28.3400,-88.2657,29.4,28.4,11111222
Chevron,ioos:station:wmo:42385:1,2021-10-01T02:47:00Z,28.3400,-88.2657,29.4,28.3,11111222
Chevron,ioos:station:wmo:42385:1,2021-10-01T03:07:00Z,28.3400,-88.2657,29.4,28.6,11111222
Chevron,ioos:station:wmo:42385:1,2021-10-01T03:27:00Z,28.3400,-88.2657,29.4,28.6,11111222
Chevron,ioos:station:wmo:42385:1,2021-10-01T03:47:00Z,28.3400,-88.2657,29.4,28.5,11111222
Chevron,ioos:station:wmo:42385:1,2021-10-01T04:07:00Z,28.3400,-88.2657,29.4,28.8,11111222
Chevron,ioos:station:wmo:42385:1,2021-10-01T04:27:00Z,28.3400,-88.2657,29.4,28.7,11111222
Chevron,ioos:station:wmo:42385:1,2021-10-01T04:47:00Z,28.3400,-88.2657,29.4,28.6,11111222
Chevron,ioos:station:wmo:42385:1,2021-10-01T05:07:00Z,28.3400,-88.2657,29.4,28.6,11111222
Chevron,ioos:station:wmo:42385:1,2021-10-01T05:27:00Z,28.3400,-88.2657,29.4,28.6,11111222
Chevron,ioos:station:wmo:42385:1,2021-10-01T05:47:00Z,28.3400,-88.2657,29.4,28.4,11111222
Chevron,ioos:station:wmo:42385:1,2021-10-01T06:07:00Z,28.3400,-88.2657,29.4,28.5,11111222
Chevron,ioos:station:wmo:42385:1,2021-10-01T06:27:00Z,28.3400,-88.2657,29.4,28.9,11111222
Chevron,ioos:station:wmo:42385:1,2021-10-01T06:47:00Z,28.3400,-88.2657,29.4,29.0,11111222
Chevron,ioos:station:wmo:42385:1,2021-10-01T07:07:00Z,28.3400,-88.2657,29.4,28.8,11111222
Chevron,ioos:station:wmo:42385:1,2021-10-01T07:27:00Z,28.3400,-88.2657,29.4,28.8,11111222
Chevron,ioos:station:wmo:42385:1,2021-10-01T07:47:00Z,28.3400,-88.2657,29.4,28.7,11111222
Chevron,ioos:station:wmo:42385:1,2021-10-01T08:07:00Z,28.3400,-88.2657,29.4,29.0,11111222
Chevron,ioos:station:wmo:42385:1,2021-10-01T08:27:00Z,28.3400,-88.2657,29.4,28.3,11111222
Chevron,ioos:station:wmo:42385:1,2021-10-01T08:47:00Z,28.3400,-88.2657,29.4,28.3,11111222
Chevron,ioos:station:wmo:42385:1,2021-10-01T09:07:00Z,28.3400,-88.2657,29.4,28.2,11111222
Chevron,ioos:station:wmo:42385:1,2021-10-01T09:27:00Z,28.3400,-88.2657,29.4,28.3,11111222
Chevron,ioos:station:wmo:42385:1,2021-10-01T09:47:00Z,28.3400,-88.2657,29.4,27.9,11111222
Chevron,ioos:station:wmo:42385:1,2021-10-01T10:07:00Z,28.3400,-88.2657,29.4,27.8,11111222
Chevron,ioos:station:wmo:42385:1,2021-10-01T10:27:00Z,28.3400,-88.2657,29.4,27.8,11111222
Chevron,ioos:station:wmo:42385:1,2021-10-01T10:47:00Z,28.3400,-88.2657,29.4,27.9,11111222
Chevron,ioos:station:wmo:42385:1,2021-10-01T11:07:00Z,28.3400,-88.2657,29.4,27.8,11111222
Chevron,ioos:station:wmo:42385:1,2021-10-01T11:27:00Z,28.3400,-88.2657,29.4,27.9,11111222
Chevron,ioos:station:wmo:42385:1,2021-10-01T11:47:00Z,28.3400,-88.2657,29.4,28.0,11111222
Chevron,ioos:station:wmo:42385:1,2021-10-01T12:07:00Z,28.3400,-88.2657,29.4,28.1,11111222
Chevron,ioos:station:wmo:42385:1,2021-10-01T12:27:00Z,28.3400,-88.2657,29.4,28.8,11111222
Chevron,ioos:station:wmo:42385:1,2021-10-01T12:47:00Z,28.3400,-88.2657,29.4,29.0,11111222
Chevron,ioos:station:wmo:42385:1,2021-10-01T13:07:00Z,28.3400,-88.2657,29.4,28.4,11111222
Chevron,ioos:station:wmo:42385:1,2021-10-01T13:27:00Z,28.3400,-88.2657,29.4,28.7,11111222
Chevron,ioos:station:wmo:42385:1,2021-10-01T13:47:00Z,28.3400,-88.2657,29.4,29.0,11111222
Chevron,ioos:station:wmo:42385:1,2021-10-01T14:07:00Z,28.3400,-88.2657,29.4,29.0,11111222
Chevron,ioos:station:wmo:42385:1,2021-10-01T14:27:00Z,28.3400,-88.2657,29.4,29.0,11111222
Chevron,ioos:station:wmo:42385:1,2021-10-01T14:47:00Z,28.3400,-88.2657,29.4,28.9,11111222
Chevron,ioos:station:wmo:42385:1,2021-10-01T15:07:00Z,28.3400,-88.2657,29.4,28.6,11111222
Chevron,ioos:station:wmo:42385:1,2021-10-01T15:27:00Z,28.3400,-88.2657,29.4,28.3,11111222
Chevron,ioos:station:wmo:42385:1,2021-10-01T15:47:00Z,28.3400,-88.2657,29.4,28.7,11111222
Chevron,ioos:station:wmo:42385:1,2021-10-01T16:07:00Z,28.3400,-88.2657,29.4,28.6,11111222
Chevron,ioos:station:wmo:42385:1,2021-10-01T16:27:00Z,28.3400,-88.2657,29.4,28.8,11111222
Chevron,ioos:station:wmo:42385:1,2021-10-01T16:47:00Z,28.3400,-88.2657,29.4,29.1,11111222
Chevron,ioos:station:wmo:42385:1,2021-10-01T17:07:00Z,28.3400,-88.2657,29.4,29.1,11111222
Chevron,ioos:station:wmo:42385:1,2021-10-01T17:27:00Z,28.3400,-88.2657,29.4,29.1,11111222
Chevron,ioos:station:wmo:42385:1,2021-10-01T17:47:00Z,28.3400,-88.2657,29.4,28.9,11111222
Chevron,ioos:station:wmo:42385:1,2021-10-01T18:07:00Z,28.3400,-88.2657,29.4,29.1,11111222
Chevron,ioos:station:wmo:42385:1,2021-10-01T18:27:00Z,28.3400,-88.2657,29.4,29.3,11111222
Chevron,ioos:station:wmo:42385:1,2021-10-01T18:47:00Z,28.3400,-88.2657,29.4,29.2,11111222
Chevron,ioos:station:wmo:42385:1,2021-10-01T19:07:00Z,28.3400,-88.2657,29.4,29.1,11111222
Chevron,ioos:station:wmo:42385:1,2021-10-01T19:27:00Z,28.3400,-88.2657,29.4,28.9,11111222
Chevron,ioos:station:wmo:42385:1,2021-10-01T19:47:00Z,28.3400,-88.2657,29.4,28.8,11111222
Chevron,ioos:station:wmo:42385:1,2021-10-01T20:07:00Z,28.3400,-88.2657,29.4,28.8,11111222
Chevron,ioos:station:wmo:42385:1,2021-10-01T20:27:00Z,28.3400,-88.2657,29.4,28.6,11111222
Chevron,ioos:station:wmo:42385:1,2021-10-01T20:47:00Z,28.3400,-88.2657,29.4,28.6,11111222
Chevron,ioos:station:wmo:42385:1,2021-10-01T21:07:00Z,28.3400,-88.2657,29.4,28.4,11111222
Chevron,ioos:station:wmo:42385:1,2021-10-01T21:27:00Z,28.3400,-88.2657,29.4,28.0,11111222
Chevron,ioos:station:wmo:42385:1,2021-10-01T21:47:00Z,28.3400,-88.2657,29.4,27.9,11111222
Chevron,ioos:station:wmo:42385:1,2021-10-01T22:07:00Z,28.3400,-88.2657,29.4,28.0,11111222
Chevron,ioos:station:wmo:42385:1,2021-10-01T22:27:00Z,28.3400,-88.2657,29.4,28.2,11111222
Chevron,ioos:station:wmo:42385:1,2021-10-01T22:47:00Z,28.3400,-88.2657,29.4,28.1,11111222
Chevron,ioos:station:wmo:42385:1,2021-10-01T23:07:00Z,28.3400,-88.2657,29.4,28.1,11111222
Chevron,ioos:station:wmo:42385:1,2021-10-01T23:27:00Z,28.3400,-88.2657,29.4,28.1,11111222
Chevron,ioos:station:wmo:42385:1,2021-10-01T23:47:00Z,28.3400,-88.2657,29.4,28.2,11111222
Chevron,ioos:station:wmo:42385:1,2021-10-02T00:07:00Z,28.3400,-88.2657,29.4,28.2,11111222
Chevron,ioos:station:wmo:42385:1,2021-10-02T00:27:00Z,28.3400,-88.2657,29.4,28.1,11111222
Chevron,ioos:station:wmo:42385:1,2021-10-02T00:47:00Z,28.3400,-88.2657,29.4,28.0,11111222
Chevron,ioos:station:wmo:42385:1,2021-10-02T01:07:00Z,28.3400,-88.2657,29.4,28.1,11111222
Chevron,ioos:station:wmo:42385:1,2021-10-02T01:27:00Z,28.3400,-88.2657,29.4,28.4,11111222
Chevron,ioos:station:wmo:42385:1,2021-10-02T01:47:00Z,28.3400,-88.2657,29.4,28.4,11111222
Chevron,ioos:station:wmo:42385:1,2021-10-02T02:07:00Z,28.3400,-88.2657,29.4,28.4,11111222
Chevron,ioos:station:wmo:42385:1,2021-10-02T02:27:00Z,28.3400,-88.2657,29.4,28.4,11111222
Chevron,ioos:station:wmo:42385:1,2021-10-02T02:47:00Z,28.3400,-88.2657,29.4,28.4,11111222
Chevron,ioos:station:wmo:42385:1,2021-10-02T03:07:00Z,28.3400,-88.2657,29.4,28.1,11111222
Chevron,ioos:station:wmo:42385:1,2021-10-02T03:27:00Z,28.3400,-88.2657,29.4,28.2,11111222
Chevron,ioos:station:wmo:42385:1,2021-10-02T03:47:00Z,28.3400,-88.2657,29.4,28.3,11111222
Chevron,ioos:station:wmo:42385:1,2021-10-02T04:07:00Z,28.3400,-88.2657,29.4,28.2,11111222
Chevron,ioos:station:wmo:42385:1,2021-10-02T04:27:00Z,28.3400,-88.2657,29.4,28.4,11111222
Chevron,ioos:station:wmo:42385:1,2021-10-02T04:47:00Z,28.3400,-88.2657,29.4,28.3,11111222
Chevron,ioos:station:wmo:42385:1,2021-10-02T05:07:00Z,28.3400,-88.2657,29.4,28.5,11111222
Chevron,ioos:station:wmo:42385:1,2021-10-02T05:27:00Z,28.3400,-88.2657,29.4,28.8,11111222
Chevron,ioos:station:wmo:42385:1,2021-10-02T05:47:00Z,28.3400,-88.2657,29.4,29.3,11111222
Chevron,ioos:station:wmo:42385:1,2021-10-02T06:07:00Z,28.3400,-88.2657,29.4,29.4,11111222
Chevron,ioos:station:wmo:42385:1,2021-10-02T06:27:00Z,28.3400,-88.2657,29.4,29.6,11111222
Chevron,ioos:station:wmo:42385:1,2021-10-02T06:47:00Z,28.3400,-88.2657,29.4,29.3,11111222
Chevron,ioos:station:wmo:42385:1,2021-10-02T07:07:00Z,28.3400,-88.2657,29.4,29.6,11111222
Chevron,ioos:station:wmo:42385:1,2021-10-02T07:27:00Z,28.3400,-88.2657,29.4,29.8,11111222
Chevron,ioos:station:wmo:42385:1,2021-10-02T07:47:00Z,28.3400,-88.2657,29.4,29.6,11111222
Chevron,ioos:station:wmo:42385:1,2021-10-02T08:07:00Z,28.3400,-88.2657,29.4,29.3,11111222
Chevron,ioos:station:wmo:42385:1,2021-10-02T08:27:00Z,28.3400,-88.2657,29.4,29.3,11111222
Chevron,ioos:station:wmo:42385:1,2021-10-02T08:47:00Z,28.3400,-88.2657,29.4,28.4,11111222
Chevron,ioos:station:wmo:42385:1,2021-10-02T09:07:00Z,28.3400,-88.2657,29.4,28.4,11111222
Chevron,ioos:station:wmo:42385:1,2021-10-02T09:27:00Z,28.3400,-88.2657,29.4,28.3,11111222
Chevron,ioos:station:wmo:42385:1,2021-10-02T09:47:00Z,28.3400,-88.2657,29.4,29.3,11111222
Chevron,ioos:station:wmo:42385:1,2021-10-02T10:07:00Z,28.3400,-88.2657,29.4,28.6,11111222
Chevron,ioos:station:wmo:42385:1,2021-10-02T10:27:00Z,28.3400,-88.2657,29.4,28.6,11111222
Chevron,ioos:station:wmo:42385:1,2021-10-02T10:47:00Z,28.3400,-88.2657,29.4,29.5,11111222
Chevron,ioos:station:wmo:42385:1,2021-10-02T11:07:00Z,28.3400,-88.2657,29.4,29.4,11111222
Chevron,ioos:station:wmo:42385:1,2021-10-02T11:27:00Z,28.3400,-88.2657,29.4,29.6,11111222
Chevron,ioos:station:wmo:42385:1,2021-10-02T11:47:00Z,28.3400,-88.2657,29.4,29.3,11111222
Chevron,ioos:station:wmo:42385:1,2021-10-02T12:07:00Z,28.3400,-88.2657,29.4,29.4,11111222
Chevron,ioos:station:wmo:42385:1,2021-10-02T12:27:00Z,28.3400,-88.2657,29.4,29.3,11111222
Chevron,ioos:station:wmo:42385:1,2021-10-02T12:47:00Z,28.3400,-88.2657,29.4,29.2,11111222
Chevron,ioos:station:wmo:42385:1,2021-10-02T13:07:00Z,28.3400,-88.2657,29.4,29.3,11111222
Chevron,ioos:station:wmo:42385:1,2021-10-02T13:27:00Z,28.3400,-88.2657,29.4,29.3,11111222
Chevron,ioos:station:wmo:42385:1,2021-10-02T13:47:00Z,28.3400,-88.2657,29.4,29.3,11111222
Chevron,ioos:station:wmo:42385:1,2021-10-02T14:07:00Z,28.3400,-88.2657,29.4,29.4,11111222
Chevron,ioos:station:wmo:42385:1,2021-10-02T14:27:00Z,28.3400,-88.2657,29.4,29.4,11111222
Chevron,ioos:station:wmo:42385:1,2021-10-02T14:47:00Z,28.3400,-88.2657,29.4,29.3,11111222
Chevron,ioos:station:wmo:42385:1,2021-10-02T15:07:00Z,28.3400,-88.2657,29.4,29.1,11111222
Chevron,ioos:station:wmo:42385:1,2021-10-02T15:27:00Z,28.3400,-88.2657,29.4,29.0,11111222
Chevron,ioos:station:wmo:42385:1,2021-10-02T15:47:00Z,28.3400,-88.2657,29.4,29.0,11111222
Chevron,ioos:station:wmo:42385:1,2021-10-02T16:07:00Z,28.3400,-88.2657,29.4,29.0,11111222
Chevron,ioos:station:wmo:42385:1,2021-10-02T16:27:00Z,28.3400,-88.2657,29.4,29.2,11111222
Chevron,ioos:station:wmo:42385:1,2021-10-02T16:47:00Z,28.3400,-88.2657,29.4,29.1,11111222
Chevron,ioos:station:wmo:42385:1,2021-10-02T17:07:00Z,28.3400,-88.2657,29.4,29.1,11111222
Chevron,ioos:station:wmo:42385:1,2021-10-02T17:27:00Z,28.3400,-88.2657,29.4,29.1,11111222
Chevron,ioos:station:wmo:42385:1,2021-10-02T17:47:00Z,28.3400,-88.2657,29.4,28.8,11111222
Chevron,ioos:station:wmo:42385:1,2021-10-02T18:07:00Z,28.3400,-88.2657,29.4,28.9,11111222
Chevron,ioos:station:wmo:42385:1,2021-10-02T18:27:00Z,28.3400,-88.2657,29.4,28.6,11111222
Chevron,ioos:station:wmo:42385:1,2021-10-02T18:47:00Z,28.3400,-88.2657,29.4,28.5,11111222
Chevron,ioos:station:wmo:42385:1,2021-10-02T19:07:00Z,28.3400,-88.2657,29.4,28.4,11111222
Chevron,ioos:station:wmo:42385:1,2021-10-02T19:27:00Z,28.3400,-88.2657,29.4,28.4,11111222
Chevron,ioos:station:wmo:42385:1,2021-10-02T19:47:00Z,28.3400,-88.2657,29.4,28.4,11111222
Chevron,ioos:station:wmo:42385:1,2021-10-02T20:07:00Z,28.3400,-88.2657,29.4,28.4,11111222
Chevron,ioos:station:wmo:42385:1,2021-10-02T20:27:00Z,28.3400,-88.2657,29.4,28.4,11111222
Chevron,ioos:station:wmo:42385:1,2021-10-02T20:47:00Z,28.3400,-88.2657,29.4,28.5,11111222
Chevron,ioos:station:wmo:42385:1,2021-10-02T21:07:00Z,28.3400,-88.2657,29.4,28.3,11111222
Chevron,ioos:station:wmo:42385:1,2021-10-02T21:27:00Z,28.3400,-88.2657,29.4,28.1,11111222
Chevron,ioos:station:wmo:42385:1,2021-10-02T21:47:00Z,28.3400,-88.2657,29.4,28.3,11111222
Chevron,ioos:station:wmo:42385:1,2021-10-02T22:07:00Z,28.3400,-88.2657,29.4,28.1,11111222
Chevron,ioos:station:wmo:42385:1,2021-10-02T22:27:00Z,28.3400,-88.2657,29.4,28.1,11111222
Chevron,ioos:station:wmo:42385:1,2021-10-02T22:47:00Z,28.3400,-88.2657,29.4,27.9,11111222
Chevron,ioos:station:wmo:42385:1,2021-10-02T23:07:00Z,28.3400,-88.2657,29.4,27.9,11111222
Chevron,ioos:station:wmo:42385:1,2021-10-02T23:27:00Z,28.3400,-88.2657,29.4,28.0,11111222
Chevron,ioos:station:wmo:42385:1,2021-10-02T23:47:00Z,28.3400,-88.2657,29.4,28.1,11111222
Chevron,ioos:station:wmo:42385:1,2021-10-03T00:07:00Z,28.3400,-88.2657,29.4,28.1,11111222
Chevron,ioos:station:wmo:42385:1,2021-10-03T00:27:00Z,28.3400,-88.2657,29.4,28.3,11111222
Chevron,ioos:station:wmo:42385:1,2021-10-03T00:47:00Z,28.3400,-88.2657,29.4,28.3,11111222
Chevron,ioos:station:wmo:42385:1,2021-10-03T01:07:00Z,28.3400,-88.2657,29.4,28.4,11111222
Chevron,ioos:station:wmo:42385:1,2021-10-03T01:27:00Z,28.3400,-88.2657,29.4,28.5,11111222
Chevron,ioos:station:wmo:42385:1,2021-10-03T01:47:00Z,28.3400,-88.2657,29.4,28.4,11111222
Chevron,ioos:station:wmo:42385:1,2021-10-03T02:07:00Z,28.3400,-88.2657,29.4,28.6,11111222
Chevron,ioos:station:wmo:42385:1,2021-10-03T02:27:00Z,28.3400,-88.2657,29.4,28.7,11111222
Chevron,ioos:station:wmo:42385:1,2021-10-03T02:47:00Z,28.3400,-88.2657,29.4,28.6,11111222
Chevron,ioos:station:wmo:42385:1,2021-10-03T03:07:00Z,28.3400,-88.2657,29.4,28.7,11111222
Chevron,ioos:station:wmo:42385:1,2021-10-03T03:27:00Z,28.3400,-88.2657,29.4,28.6,11111222
Chevron,ioos:station:wmo:42385:1,2021-10-03T03:47:00Z,28.3400,-88.2657,29.4,28.8,11111222
Chevron,ioos:station:wmo:42385:1,2021-10-03T04:07:00Z,28.3400,-88.2657,29.4,28.6,11111222
Chevron,ioos:station:wmo:42385:1,2021-10-03T04:27:00Z,28.3400,-88.2657,29.4,28.7,11111222
Chevron,ioos:station:wmo:42385:1,2021-10-03T04:47:00Z,28.3400,-88.2657,29.4,28.8,11111222
Chevron,ioos:station:wmo:42385:1,2021-10-03T05:07:00Z,28.3400,-88.2657,29.4,28.7,11111222
Chevron,ioos:station:wmo:42385:1,2021-10-03T05:27:00Z,28.3400,-88.2657,29.4,29.0,11111222
Chevron,ioos:station:wmo:42385:1,2021-10-03T05:47:00Z,28.3400,-88.2657,29.4,29.0,11111222
Chevron,ioos:station:wmo:42385:1,2021-10-03T06:07:00Z,28.3400,-88.2657,29.4,29.0,11111222
Chevron,ioos:station:wmo:42385:1,2021-10-03T06:27:00Z,28.3400,-88.2657,29.4,29.1,11111222
Chevron,ioos:station:wmo:42385:1,2021-10-03T06:47:00Z,28.3400,-88.2657,29.4,29.1,11111222
Chevron,ioos:station:wmo:42385:1,2021-10-03T07:07:00Z,28.3400,-88.2657,29.4,29.0,11111222
Chevron,ioos:station:wmo:42385:1,2021-10-03T07:27:00Z,28.3400,-88.2657,29.4,29.1,11111222
Chevron,ioos:station:wmo:42385:1,2021-10-03T07:47:00Z,28.3400,-88.2657,29.4,29.1,11111222
Chevron,ioos:station:wmo:42385:1,2021-10-03T08:07:00Z,28.3400,-88.2657,29.4,29.1,11111222
Chevron,ioos:station:wmo:42385:1,2021-10-03T08:27:00Z,28.3400,-88.2657,29.4,29.2,11111222
Chevron,ioos:station:wmo:42385:1,2021-10-03T08:47:00Z,28.3400,-88.2657,29.4,29.0,11111222
Chevron,ioos:station:wmo:42385:1,2021-10-03T09:07:00Z,28.3400,-88.2657,29.4,29.0,11111222
Chevron,ioos:station:wmo:42385:1,2021-10-03T09:27:00Z,28.3400,-88.2657,29.4,29.1,11111222
Chevron,ioos:station:wmo:42385:1,2021-10-03T09:47:00Z,28.3400,-88.2657,29.4,29.1,11111222
Chevron,ioos:station:wmo:42385:1,2021-10-03T10:07:00Z,28.3400,-88.2657,29.4,29.0,11111222
Chevron,ioos:station:wmo:42385:1,2021-10-03T10:27:00Z,28.3400,-88.2657,29.4,29.2,11111222
Chevron,ioos:station:wmo:42385:1,2021-10-03T10:47:00Z,28.3400,-88.2657,29.4,29.1,11111222
Chevron,ioos:station:wmo:42385:1,2021-10-03T11:07:00Z,28.3400,-88.2657,29.4,29.1,11111222
Chevron,ioos:station:wmo:42385:1,2021-10-03T11:27:00Z,28.3400,-88.2657,29.4,29.0,11111222
Chevron,ioos:station:wmo:42385:1,2021-10-03T11:47:00Z,28.3400,-88.2657,29.4,28.9,11111222
Chevron,ioos:station:wmo:42385:1,2021-10-03T12:07:00Z,28.3400,-88.2657,29.4,28.6,11111222
Chevron,ioos:station:wmo:42385:1,2021-10-03T12:27:00Z,28.3400,-88.2657,29.4,28.4,11111222
Chevron,ioos:station:wmo:42385:1,2021-10-03T12:47:00Z,28.3400,-88.2657,29.4,28.4,11111222
Chevron,ioos:station:wmo:42385:1,2021-10-03T13:07:00Z,28.3400,-88.2657,29.4,28.4,11111222
Chevron,ioos:station:wmo:42385:1,2021-10-03T13:27:00Z,28.3400,-88.2657,29.4,28.4,11111222
Chevron,ioos:station:wmo:42385:1,2021-10-03T13:47:00Z,28.3400,-88.2657,29.4,28.4,11111222
Chevron,ioos:station:wmo:42385:1,2021-10-03T14:07:00Z,28.3400,-88.2657,29.4,28.6,11111222
Chevron,ioos:station:wmo:42385:1,2021-10-03T14:27:00Z,28.3400,-88.2657,29.4,28.2,11111222
Chevron,ioos:station:wmo:42385:1,2021-10-03T14:47:00Z,28.3400,-88.2657,29.4,27.9,11111222
Chevron,ioos:station:wmo:42385:1,2021-10-03T15:07:00Z,28.3400,-88.2657,29.4,28.0,11111222
Chevron,ioos:station:wmo:42385:1,2021-10-03T15:27:00Z,28.3400,-88.2657,29.4,28.1,11111222
Chevron,ioos:station:wmo:42385:1,2021-10-03T15:47:00Z,28.3400,-88.2657,29.4,28.3,11111222
Chevron,ioos:station:wmo:42385:1,2021-10-03T16:07:00Z,28.3400,-88.2657,29.4,27.7,11111222
Chevron,ioos:station:wmo:42385:1,2021-10-03T16:27:00Z,28.3400,-88.2657,29.4,27.9,11111222
Chevron,ioos:station:wmo:42385:1,2021-10-03T16:47:00Z,28.3400,-88.2657,29.4,27.8,11111222
Chevron,ioos:station:wmo:42385:1,2021-10-03T17:07:00Z,28.3400,-88.2657,29.4,27.7,11111222
Chevron,ioos:station:wmo:42385:1,2021-10-03T17:27:00Z,28.3400,-88.2657,29.4,27.9,11111222
Chevron,ioos:station:wmo:42385:1,2021-10-03T17:47:00Z,28.3400,-88.2657,29.4,27.7,11111222
Chevron,ioos:station:wmo:42385:1,2021-10-03T18:07:00Z,28.3400,-88.2657,29.4,27.7,11111222
Chevron,ioos:station:wmo:42385:1,2021-10-03T18:27:00Z,28.3400,-88.2657,29.4,28.0,11111222
Chevron,ioos:station:wmo:42385:1,2021-10-03T18:47:00Z,28.3400,-88.2657,29.4,27.6,11111222
Chevron,ioos:station:wmo:42385:1,2021-10-03T19:07:00Z,28.3400,-88.2657,29.4,28.2,11111222
Chevron,ioos:station:wmo:42385:1,2021-10-03T19:27:00Z,28.3400,-88.2657,29.4,28.4,11111222
Chevron,ioos:station:wmo:42385:1,2021-10-03T19:47:00Z,28.3400,-88.2657,29.4,28.6,11111222
Chevron,ioos:station:wmo:42385:1,2021-10-03T20:07:00Z,28.3400,-88.2657,29.4,28.7,11111222
Chevron,ioos:station:wmo:42385:1,2021-10-03T20:27:00Z,28.3400,-88.2657,29.4,28.7,11111222
Chevron,ioos:station:wmo:42385:1,2021-10-03T20:47:00Z,28.3400,-88.2657,29.4,28.7,11111222
Chevron,ioos:station:wmo:42385:1,2021-10-03T21:07:00Z,28.3400,-88.2657,29.4,28.7,11111222
Chevron,ioos:station:wmo:42385:1,2021-10-03T21:27:00Z,28.3400,-88.2657,29.4,28.9,11111222
Chevron,ioos:station:wmo:42385:1,2021-10-03T21:47:00Z,28.3400,-88.2657,29.4,28.9,11111222
Chevron,ioos:station:wmo:42385:1,2021-10-03T22:07:00Z,28.3400,-88.2657,29.4,29.0,11111222
Chevron,ioos:station:wmo:42385:1,2021-10-03T22:27:00Z,28.3400,-88.2657,29.4,28.7,11111222
Chevron,ioos:station:wmo:42385:1,2021-10-03T22:47:00Z,28.3400,-88.2657,29.4,29.0,11111222
Chevron,ioos:station:wmo:42385:1,2021-10-03T23:07:00Z,28.3400,-88.2657,29.4,28.6,11111222
Chevron,ioos:station:wmo:42385:1,2021-10-03T23:27:00Z,28.3400,-88.2657,29.4,28.7,11111222
Chevron,ioos:station:wmo:42385:1,2021-10-03T23:47:00Z,28.3400,-88.2657,29.4,28.7,11111222
Chevron,ioos:station:wmo:42385:1,2021-10-04T00:07:00Z,28.3400,-88.2657,29.4,28.8,11111222
Chevron,ioos:station:wmo:42385:1,2021-10-04T00:27:00Z,28.3400,-88.2657,29.4,29.0,11111222
Chevron,ioos:station:wmo:42385:1,2021-10-04T00:47:00Z,28.3400,-88.2657,29.4,28.8,11111222
Chevron,ioos:station:wmo:42385:1,2021-10-04T01:07:00Z,28.3400,-88.2657,29.4,29.0,11111222
Chevron,ioos:station:wmo:42385:1,2021-10-04T01:27:00Z,28.3400,-88.2657,29.4,29.2,11111222
Chevron,ioos:station:wmo:42385:1,2021-10-04T01:47:00Z,28.3400,-88.2657,29.4,29.0,11111222
Chevron,ioos:station:wmo:42385:1,2021-10-04T02:07:00Z,28.3400,-88.2657,29.4,28.9,11111222
Chevron,ioos:station:wmo:42385:1,2021-10-04T02:27:00Z,28.3400,-88.2657,29.4,29.0,11111222
Chevron,ioos:station:wmo:42385:1,2021-10-04T02:47:00Z,28.3400,-88.2657,29.4,29.1,11111222
Chevron,ioos:station:wmo:42385:1,2021-10-04T03:07:00Z,28.3400,-88.2657,29.4,29.1,11111222
Chevron,ioos:station:wmo:42385:1,2021-10-04T03:27:00Z,28.3400,-88.2657,29.4,29.0,11111222
Chevron,ioos:station:wmo:42385:1,2021-10-04T03:47:00Z,28.3400,-88.2657,29.4,29.0,11111222
Chevron,ioos:station:wmo:42385:1,2021-10-04T04:07:00Z,28.3400,-88.2657,29.4,28.9,11111222
Chevron,ioos:station:wmo:42385:1,2021-10-04T04:27:00Z,28.3400,-88.2657,29.4,28.9,11111222
Chevron,ioos:station:wmo:42385:1,2021-10-04T04:47:00Z,28.3400,-88.2657,29.4,28.8,11111222
Chevron,ioos:station:wmo:42385:1,2021-10-04T05:07:00Z,28.3400,-88.2657,29.4,28.8,11111222
Chevron,ioos:station:wmo:42385:1,2021-10-04T05:27:00Z,28.3400,-88.2657,29.4,29.0,11111222
Chevron,ioos:station:wmo:42385:1,2021-10-04T05:47:00Z,28.3400,-88.2657,29.4,28.9,11111222
Chevron,ioos:station:wmo:42385:1,2021-10-04T06:07:00Z,28.3400,-88.2657,29.4,28.7,11111222
Chevron,ioos:station:wmo:42385:1,2021-10-04T06:27:00Z,28.3400,-88.2657,29.4,28.9,11111222
Chevron,ioos:station:wmo:42385:1,2021-10-04T06:47:00Z,28.3400,-88.2657,29.4,29.0,11111222
Chevron,ioos:station:wmo:42385:1,2021-10-04T07:07:00Z,28.3400,-88.2657,29.4,28.9,11111222
Chevron,ioos:station:wmo:42385:1,2021-10-04T07:27:00Z,28.3400,-88.2657,29.4,29.0,11111222
Chevron,ioos:station:wmo:42385:1,2021-10-04T07:47:00Z,28.3400,-88.2657,29.4,28.9,11111222
Chevron,ioos:station:wmo:42385:1,2021-10-04T08:07:00Z,28.3400,-88.2657,29.4,28.8,11111222
Chevron,ioos:station:wmo:42385:1,2021-10-04T08:27:00Z,28.3400,-88.2657,29.4,28.9,11111222
Chevron,ioos:station:wmo:42385:1,2021-10-04T08:47:00Z,28.3400,-88.2657,29.4,29.0,11111222
Chevron,ioos:station:wmo:42385:1,2021-10-04T09:07:00Z,28.3400,-88.2657,29.4,28.9,11111222
Chevron,ioos:station:wmo:42385:1,2021-10-04T09:27:00Z,28.3400,-88.2657,29.4,29.0,11111222
Chevron,ioos:station:wmo:42385:1,2021-10-04T09:47:00Z,28.3400,-88.2657,29.4,28.9,11111222
Chevron,ioos:station:wmo:42385:1,2021-10-04T10:07:00Z,28.3400,-88.2657,29.4,28.9,11111222
Chevron,ioos:station:wmo:42385:1,2021-10-04T10:27:00Z,28.3400,-88.2657,29.4,28.9,11111222
Chevron,ioos:station:wmo:42385:1,2021-10-04T10:47:00Z,28.3400,-88.2657,29.4,28.9,11111222
Chevron,ioos:station:wmo:42385:1,2021-10-04T11:07:00Z,28.3400,-88.2657,29.4,28.9,11111222
Chevron,ioos:station:wmo:42385:1,2021-10-04T11:27:00Z,28.3400,-88.2657,29.4,29.0,11111222
Chevron,ioos:station:wmo:42385:1,2021-10-04T11:47:00Z,28.3400,-88.2657,29.4,29.0,11111222
Chevron,ioos:station:wmo:42385:1,2021-10-04T12:07:00Z,28.3400,-88.2657,29.4,29.0,11111222
Chevron,ioos:station:wmo:42385:1,2021-10-04T12:27:00Z,28.3400,-88.2657,29.4,29.0,11111222
Chevron,ioos:station:wmo:42385:1,2021-10-04T12:47:00Z,28.3400,-88.2657,29.4,29.0,11111222
Chevron,ioos:station:wmo:42385:1,2021-10-04T13:07:00Z,28.3400,-88.2657,29.4,29.0,11111222
Chevron,ioos:station:wmo:42385:1,2021-10-04T13:27:00Z,28.3400,-88.2657,29.4,29.0,11111222
Chevron,ioos:station:wmo:42385:1,2021-10-04T13:47:00Z,28.3400,-88.2657,29.4,29.1,11111222
Chevron,ioos:station:wmo:42385:1,2021-10-04T14:07:00Z,28.3400,-88.2657,29.4,29.1,11111222
Chevron,ioos:station:wmo:42385:1,2021-10-04T14:27:00Z,28.3400,-88.2657,29.4,29.2,11111222
Chevron,ioos:station:wmo:42385:1,2021-10-04T14:47:00Z,28.3400,-88.2657,29.4,29.2,11111222
Chevron,ioos:station:wmo:42385:1,2021-10-04T15:07:00Z,28.3400,-88.2657,29.4,29.2,11111222